Terminal Aerodrome Forecast
Issued by NWS

Home | Current Version | Previous Version | Text Only | Print | Product List | Glossary On
Versions: 1 2 3 4 5 6 7 8 9 10 11 12 13 14 15 16 17 18 19 20 21 22 23 24 25 26 27
000
FTAK31 PAFA 300528
TAFAOT
TAF
PAOT 300528Z 3006/0106 32006KT P6SM OVC045
     FM301000 22007KT 6SM -RA BR OVC015
     FM010000 24006KT P6SM OVC025=

USA.gov is the U.S. government's official web portal to all federal, state and local government web resources and services.